Adamsville, PA

12:20 AM EDT on September 26, 2016 (GMT -0400)
Port Meadville

Weather History for KGKJ - July, 2013

Change the Weather History Date:

Saturday, July 20, 2013

  Actual Average Record
Temperature  
Mean Temperature 70 °F -  
Max Temperature 77 °F 83 °F 93 °F (1991)
Min Temperature 66 °F 59 °F 43 °F (1965)
Cooling Degree Days 6    
Growing Degree Days 20 (Base 50)    
Moisture  
Dew Point 66 °F    
Average Humidity 86    
Maximum Humidity 100    
Minimum Humidity 71    
Precipitation  
Precipitation 0.81 in - - ()
Sea Level Pressure  
Sea Level Pressure 29.88 in    
Wind  
Wind Speed 7 mph (SW)    
Max Wind Speed 18 mph    
Max Gust Speed 30 mph    
Visibility 8 miles    
Events Rain    
Averages and records for this station are not official NWS values.
T = Trace of Precipitation, MM = Missing Value Source: NWS Daily Summary

Daily Weather History Graph

Daily Weather History Graph

Search for Another Location

Airport or City:

Trip Planner

Search our weather history database for the weather conditions in past years. The results will help you decide how hot, cold, wet, or windy it might be!

Date:

Astronomy

Jul. 20, 2013 Rise Set
Actual Time 6:04 AM EDT 8:49 PM EDT
Civil Twilight 5:31 AM EDT 9:22 PM EDT
Nautical Twilight 4:50 AM EDT 10:02 PM EDT
Astronomical Twilight 4:03 AM EDT 10:49 PM EDT
Moon 6:51 PM EDT (7/20) 3:42 AM EDT (7/20)
Length of Visible Light 15h 50m
Length of Day
14h 45m
Waxing Gibbous, 93% of the Moon is Illuminated
Jul 20
Waxing Gibbous
Jul 22
Full
Jul 29
Last Quarter
Aug 6
New
Aug 14
First Quarter

Hourly Weather History & Observations

Time (EDT) Temp. Dew Point Humidity Pressure Visibility Wind Dir Wind Speed Gust Speed Precip Events Conditions
12:53 AM 73.0 °F 66.0 °F 79% 29.87 in 10.0 mi WSW 5.8 mph - N/A   Partly Cloudy
1:53 AM 70.0 °F 66.0 °F 87% 29.85 in 10.0 mi Calm Calm - 0.00 in Rain Light Rain
2:53 AM 68.0 °F 64.9 °F 90% 29.83 in 10.0 mi SSW 5.8 mph - 0.02 in   Clear
3:53 AM 68.0 °F 66.0 °F 93% 29.83 in 10.0 mi SSW 4.6 mph - N/A   Mostly Cloudy
4:31 AM 68.0 °F 66.2 °F 94% 29.93 in 1.8 mi West 18.4 mph 28.8 mph 0.21 in Rain Light Rain
4:38 AM 66.2 °F 64.4 °F 94% 29.90 in 0.8 mi West 11.5 mph 29.9 mph 0.37 in Rain Heavy Rain
4:43 AM 66.2 °F 64.4 °F 94% 29.90 in 1.2 mi WSW 6.9 mph 20.7 mph 0.41 in Rain Heavy Rain
4:47 AM 66.2 °F 64.4 °F 94% 29.90 in 2.0 mi SW 4.6 mph - 0.42 in Rain Light Rain
4:53 AM 66.9 °F 64.9 °F 93% 29.85 in 8.0 mi SSW 4.6 mph - 0.42 in Rain Light Rain
5:53 AM 66.0 °F 64.0 °F 93% 29.88 in 6.0 mi SW 4.6 mph - 0.09 in Rain Rain
6:15 AM 66.2 °F 64.4 °F 94% 29.92 in 5.0 mi SSW 6.9 mph - 0.06 in Rain Rain
6:53 AM 66.0 °F 64.9 °F 96% 29.84 in 10.0 mi SSE 3.5 mph - 0.12 in Rain Light Rain
7:53 AM 66.0 °F 64.0 °F 93% 29.86 in 10.0 mi SW 5.8 mph - 0.00 in Rain Light Rain
8:05 AM 66.2 °F 64.4 °F 94% 29.92 in 7.0 mi West 10.4 mph - 0.01 in Rain Light Rain
8:36 AM 66.2 °F 64.4 °F 94% 29.94 in 2.5 mi SW 6.9 mph - 0.10 in Rain Rain
8:49 AM 66.2 °F 64.4 °F 94% 29.93 in 5.0 mi SSW 8.1 mph 16.1 mph 0.13 in Rain Light Rain
8:53 AM 66.9 °F 64.9 °F 93% 29.90 in 6.0 mi SSW 10.4 mph - 0.13 in Rain Light Rain
9:23 AM 66.2 °F 66.2 °F 100% 29.86 in 10.0 mi South 10.4 mph 20.7 mph 0.02 in Rain Light Rain
9:41 AM 66.2 °F 64.4 °F 94% 29.84 in 10.0 mi South 12.7 mph 20.7 mph 0.02 in Rain Light Rain
9:53 AM 66.9 °F 64.9 °F 93% 29.83 in 10.0 mi SSW 16.1 mph 21.9 mph 0.03 in   Overcast
10:11 AM 68.0 °F 66.2 °F 94% 29.87 in 10.0 mi SSW 6.9 mph - N/A   Scattered Clouds
10:53 AM 70.0 °F 66.9 °F 90% 29.85 in 10.0 mi WSW 8.1 mph - N/A   Partly Cloudy
11:02 AM 69.8 °F 66.2 °F 88% 29.89 in 10.0 mi SW 8.1 mph - N/A   Mostly Cloudy
11:38 AM 71.6 °F 66.2 °F 83% 29.89 in 10.0 mi WSW 12.7 mph 17.3 mph N/A   Scattered Clouds
11:53 AM 73.0 °F 66.9 °F 81% 29.86 in 10.0 mi WSW 5.8 mph - N/A   Clear
12:53 PM 75.0 °F 66.9 °F 76% 29.86 in 10.0 mi SW 8.1 mph - N/A   Partly Cloudy
1:29 PM 75.2 °F 66.2 °F 73% 29.89 in 10.0 mi SW 9.2 mph - N/A   Mostly Cloudy
1:53 PM 73.9 °F 66.0 °F 76% 29.87 in 10.0 mi SW 9.2 mph - N/A   Overcast
2:53 PM 75.9 °F 66.0 °F 71% 29.87 in 10.0 mi WSW 12.7 mph - N/A   Mostly Cloudy
3:15 PM 75.2 °F 66.2 °F 73% 29.89 in 10.0 mi WSW 8.1 mph - N/A   Overcast
3:42 PM 73.4 °F 66.2 °F 78% 29.89 in 10.0 mi Variable 3.5 mph - N/A   Overcast
3:53 PM 73.9 °F 66.9 °F 79% 29.87 in 10.0 mi SW 4.6 mph - N/A   Overcast
4:53 PM 73.9 °F 66.9 °F 79% 29.86 in 10.0 mi SW 9.2 mph - N/A   Overcast
5:31 PM 75.2 °F 69.8 °F 83% 29.89 in 10.0 mi West 11.5 mph - 0.00 in   Mostly Cloudy
5:53 PM 75.0 °F 69.1 °F 82% 29.87 in 10.0 mi WSW 6.9 mph - 0.00 in   Partly Cloudy
6:53 PM 75.0 °F 69.1 °F 82% 29.87 in 10.0 mi WNW 4.6 mph - N/A   Overcast
7:07 PM 75.2 °F 66.2 °F 73% 29.89 in 10.0 mi NW 5.8 mph - N/A   Scattered Clouds
7:53 PM 73.9 °F 66.0 °F 76% 29.88 in 10.0 mi NW 3.5 mph - N/A   Clear
8:53 PM 71.1 °F 64.9 °F 81% 29.90 in 10.0 mi Calm Calm - N/A   Mostly Cloudy
9:53 PM 70.0 °F 64.0 °F 81% 29.92 in 10.0 mi Calm Calm - N/A   Clear
10:53 PM 69.1 °F 64.9 °F 87% 29.93 in 10.0 mi Calm Calm - N/A   Clear
11:53 PM 66.0 °F 62.1 °F 87% 29.93 in 10.0 mi Calm Calm - N/A   Clear